Texarkana, AR

3:52 AM CDT on May 30, 2017 (GMT -0500)
Texarkana Regional-Webb

Weather History for KTXK - October, 2011

Change the Weather History Date:

Friday, October 28, 2011

  Actual Average Record
Temperature  
Mean Temperature 54 °F 61 °F  
Max Temperature 62 °F 72 °F 93 °F (1927)
Min Temperature 46 °F 50 °F 27 °F (1914)
Degree Days  
Heating Degree Days 11 6  
Month to date heating degree days 56 88  
Since 1 July heating degree days 56 99  
Cooling Degree Days 0 2  
Month to date cooling degree days 121 92  
Year to date cooling degree days 2922 2186  
Growing Degree Days 4 (Base 50)    
Moisture  
Dew Point 42 °F    
Average Humidity 65    
Maximum Humidity 93    
Minimum Humidity 37    
Precipitation  
Precipitation T in 0.16 in 3.36 in (1974)
Month to date precipitation 1.08 4.46  
Year to date precipitation 22.12 39.31  
Snow  
Snow 0.00 in - - ()
Month to date snowfall 0.0  
Since 1 July snowfall 0.0  
Since 1 September snowfall 0.0  
Snow Depth 0.00 in    
Sea Level Pressure  
Sea Level Pressure 30.16 in    
Wind  
Wind Speed 9 mph (NNE)    
Max Wind Speed 17 mph    
Max Gust Speed 23 mph    
Visibility 10 miles    
Events Rain    
T = Trace of Precipitation, MM = Missing Value Source: NWS Daily Summary

Daily Weather History Graph

Daily Weather History Graph

Search for Another Location

Airport or City:

Trip Planner

Search our weather history database for the weather conditions in past years. The results will help you decide how hot, cold, wet, or windy it might be!

Date:

Astronomy

Oct. 28, 2011 Rise Set
Actual Time 7:30 AM CDT 6:28 PM CDT
Civil Twilight 7:05 AM CDT 6:53 PM CDT
Nautical Twilight 6:36 AM CDT 7:22 PM CDT
Astronomical Twilight 6:07 AM CDT 7:51 PM CDT
Moon 9:39 AM CDT (10/28) 8:00 PM CDT (10/28)
Length of Visible Light 11h 48m
Length of Day
10h 57m
Waxing Crescent, 5% of the Moon is Illuminated
Oct 28
Waxing Crescent
Nov 2
First Quarter
Nov 10
Full
Nov 18
Last Quarter
Nov 25
New

Hourly Weather History & Observations

Time (CDT) Temp. Dew Point Humidity Pressure Visibility Wind Dir Wind Speed Gust Speed Precip Events Conditions
12:05 AM 48.2 °F 46.4 °F 93% 30.07 in 3.0 mi NE 10.4 mph - 0.07 in Rain Heavy Rain
12:16 AM 48.2 °F 46.4 °F 93% 30.05 in 6.0 mi ENE 9.2 mph 16.1 mph 0.09 in Rain Light Rain
12:46 AM 48.2 °F 46.4 °F 93% 30.05 in 8.0 mi NE 9.2 mph 17.3 mph 0.11 in Rain Rain
12:53 AM 48.9 °F 46.9 °F 93% 30.08 in 9.0 mi North 8.1 mph - 0.12 in Rain Light Rain
1:03 AM 48.2 °F 46.4 °F 93% 30.09 in 10.0 mi North 9.2 mph - 0.00 in Rain Light Rain
1:30 AM 48.2 °F 46.4 °F 93% 30.08 in 10.0 mi NNE 9.2 mph - 0.00 in   Overcast
1:53 AM 48.9 °F 46.0 °F 90% 30.08 in 10.0 mi NNE 10.4 mph - 0.00 in   Overcast
2:53 AM 48.2 °F 46.4 °F 93% 30.08 in 10.0 mi NNE 10.4 mph - N/A   Overcast
3:11 AM 48.2 °F 46.4 °F 93% 30.09 in 10.0 mi NNE 9.2 mph - N/A   Overcast
3:33 AM 48.2 °F 44.6 °F 87% 30.09 in 10.0 mi NNE 10.4 mph - N/A   Overcast
3:53 AM 48.0 °F 45.0 °F 89% 30.09 in 10.0 mi NE 9.2 mph - N/A   Overcast
4:53 AM 48.2 °F 44.6 °F 87% 30.10 in 10.0 mi NNE 10.4 mph - N/A   Overcast
5:53 AM 48.0 °F 44.1 °F 86% 30.14 in 10.0 mi NNE 6.9 mph - N/A   Overcast
6:53 AM 48.0 °F 44.1 °F 86% 30.14 in 10.0 mi NNE 9.2 mph - N/A   Overcast
7:53 AM 48.9 °F 44.1 °F 83% 30.17 in 10.0 mi North 6.9 mph - N/A   Overcast
8:50 AM 50.0 °F 44.6 °F 82% 30.19 in 10.0 mi North 10.4 mph - N/A   Overcast
8:53 AM 50.0 °F 44.1 °F 80% 30.19 in 10.0 mi North 10.4 mph - N/A   Overcast
9:53 AM 51.1 °F 43.0 °F 74% 30.19 in 10.0 mi NNE 11.5 mph - N/A   Mostly Cloudy
10:08 AM 53.6 °F 44.6 °F 72% 30.19 in 10.0 mi NNE 10.4 mph - N/A   Mostly Cloudy
10:23 AM 51.8 °F 42.8 °F 71% 30.20 in 10.0 mi NNE 9.2 mph - N/A   Scattered Clouds
10:33 AM 53.6 °F 42.8 °F 67% 30.21 in 10.0 mi NNE 11.5 mph - N/A   Mostly Cloudy
10:41 AM 53.6 °F 42.8 °F 67% 30.21 in 10.0 mi NNE 9.2 mph - N/A   Scattered Clouds
10:53 AM 52.0 °F 42.1 °F 69% 30.21 in 10.0 mi NNE 11.5 mph - N/A   Scattered Clouds
11:53 AM 57.0 °F 39.9 °F 53% 30.20 in 10.0 mi NNE 12.7 mph - N/A   Partly Cloudy
12:53 PM 57.9 °F 37.9 °F 47% 30.19 in 10.0 mi North 11.5 mph 20.7 mph N/A   Mostly Cloudy
2:53 PM 60.1 °F 36.0 °F 41% 30.17 in 10.0 mi North 13.8 mph 20.7 mph N/A   Partly Cloudy
3:53 PM 61.0 °F 35.1 °F 38% 30.16 in 10.0 mi NNW 11.5 mph - N/A   Partly Cloudy
4:26 PM 60.8 °F 35.6 °F 39% 30.17 in 10.0 mi North 10.4 mph - N/A   Mostly Cloudy
4:53 PM 60.1 °F 35.1 °F 39% 30.17 in 10.0 mi North 9.2 mph - N/A   Mostly Cloudy
5:53 PM 59.0 °F 33.1 °F 38% 30.19 in 10.0 mi North 10.4 mph - N/A   Scattered Clouds
6:53 PM 55.0 °F 34.0 °F 45% 30.20 in 10.0 mi North 4.6 mph - N/A   Clear
7:53 PM 51.8 °F 35.6 °F 54% 30.22 in 10.0 mi North 3.5 mph - N/A   Clear
8:53 PM 51.1 °F 36.0 °F 56% 30.24 in 10.0 mi NNW 3.5 mph - N/A   Clear
9:53 PM 50.0 °F 35.6 °F 58% 30.24 in 10.0 mi NNW 3.5 mph - N/A   Clear
10:53 PM 48.9 °F 36.0 °F 61% 30.25 in 10.0 mi WNW 3.5 mph - N/A   Clear
11:53 PM 46.9 °F 36.0 °F 66% 30.25 in 10.0 mi NW 3.5 mph - N/A   Clear